Back to catalog

CZ-6A DEB

AlivePO
NORAD 58202·DEBRIS·🇨🇳 China

Launched Oct 31, 2023 from Taiyuan Satellite Launch Center

Loading…

Next Passes (next 24 hours)

TLE

FreshSource: Space-Track

Epoch: Sep 14, 2026, 01:53 UTC

1 58202U 23168D   26257.07907047  .00045871  00000-0  10424-2 0  9991
2 58202  97.7580 296.7817 0000395 142.5146 217.6128 15.42875716158114

Track CZ-6A DEB in real time with AllMySat

Download on the App Store